EW2957 Weather Reports


time (UTC)temp
C
wind
direction
speed
KPH
gust
KPH
rain 1hr
cm
rain 24hr
cm
rain mn
cm
humidity
%
barometer
mb
20260503224541 26 236 0.0 0.0 0.00 0.00 0.00 43 1009.6
20260503223039 26 296 0.0 0.0 0.00 0.00 0.00 44 1009.8
20260503221536 26 355 0.0 0.0 0.00 0.00 0.00 44 1010.1
20260503220042 26 252 0.0 0.0 0.00 0.00 0.00 44 1010.3
20260503214532 26 218 0.0 0.0 0.00 0.00 0.00 44 1010.4
20260503213033 26 315 0.0 0.0 0.00 0.00 0.00 42 1010.4
20260503211513 26 313 0.0 1.6 0.00 0.00 0.00 42 1010.5
20260503210010 26 252 0.0 0.0 0.00 0.00 0.00 43 1010.7
20260503204556 26 340 0.0 0.0 0.00 0.00 0.00 43 1010.8
20260503203111 26 271 0.0 0.0 0.00 0.00 0.00 43 1010.9
20260503201552 26 178 0.0 0.0 0.00 0.00 0.00 43 1011.1
20260503200050 25 242 0.0 0.0 0.00 0.00 0.00 44 1011.3
20260503194547 25 267 0.0 0.0 0.00 0.00 0.00 45 1011.5
20260503193043 25 273 0.0 1.6 0.00 0.00 0.00 45 1011.8
20260503191546 25 347 0.0 0.0 0.00 0.00 0.00 46 1011.9
20260503190042 24 33 0.0 0.0 0.00 0.00 0.00 48 1012.1
20260503184524 24 257 0.0 0.0 0.00 0.00 0.00 47 1012.2
20260503183018 23 337 0.0 0.0 0.00 0.00 0.00 51 1012.4
20260503181514 23 265 0.0 0.0 0.00 0.00 0.00 52 1012.4
20260503180013 22 318 0.0 0.0 0.00 0.00 0.00 52 1012.5
20260503174509 23 246 0.0 0.0 0.00 0.00 0.00 54 1012.6
20260503173007 22 258 0.0 0.0 0.00 0.00 0.00 53 1012.7
20260503171504 22 54 0.0 0.0 0.00 0.00 0.00 55 1012.7
20260503081602 13 257 0.0 0.0 0.00 0.00 0.00 71 1013.3
20260503071553 15 257 0.0 0.0 0.00 0.00 0.00 67 1013.1
20260503054552 16 257 0.0 0.0 0.00 0.00 0.00 63 1013.1
20260503053038 16 257 0.0 0.0 0.00 0.00 0.00 62 1013.1
20260503051531 16 257 0.0 0.0 0.00 0.00 0.00 61 1013.1
20260503050029 17 257 0.0 0.0 0.00 0.00 0.00 60 1013.0
20260503044529 17 257 0.0 0.0 0.00 0.00 0.00 60 1012.9
20260503043025 17 257 0.0 0.0 0.00 0.00 0.00 59 1012.8
20260503041516 18 282 0.0 0.0 0.00 0.00 0.00 59 1012.6
20260503040026 18 282 0.0 0.0 0.00 0.00 0.00 57 1012.4
20260503034515 19 224 0.0 0.0 0.00 0.00 0.00 56 1012.1
20260503033014 20 221 0.0 0.0 0.00 0.00 0.00 56 1012.0
20260503031514 20 221 0.0 0.0 0.00 0.00 0.00 54 1011.9
20260503030013 21 204 0.0 0.0 0.00 0.00 0.00 53 1011.8
20260503024513 21 313 0.0 0.0 0.00 0.00 0.00 51 1011.7
20260503023001 21 206 0.0 0.0 0.00 0.00 0.00 50 1011.6
20260503021601 22 19 0.0 3.2 0.00 0.00 0.00 48 1011.6
20260503020100 23 310 0.0 0.0 0.00 0.00 0.00 46 1011.5
20260503014600 23 324 0.0 0.0 0.00 0.00 0.00 48 1011.6
20260503013056 23 355 0.0 0.0 0.00 0.00 0.00 50 1011.7
20260503011557 23 330 0.0 0.0 0.00 0.00 0.00 49 1011.7
20260503010055 23 321 0.0 0.0 0.00 0.00 0.00 50 1011.8
20260503004553 23 286 0.0 1.6 0.00 0.00 0.00 51 1011.9
20260503003041 23 35 0.0 0.0 0.00 0.00 0.00 51 1011.9
20260503001539 23 28 0.0 0.0 0.00 0.00 0.00 51 1011.9
20260503000038 23 232 0.0 0.0 0.00 0.00 0.00 50 1012.0
20260502234548 23 345 0.0 0.0 0.00 0.00 0.00 50 1012.1
20260502233034 23 279 0.0 0.0 0.00 0.00 0.00 50 1012.3
20260502231532 24 259 0.0 0.0 0.00 0.00 0.00 50 1012.6
20260502230028 23 334 0.0 0.0 0.00 0.00 0.00 50 1012.9